[[{"header":{"parameterUnit":"m.s-1","parameterCategory":1,"la1":30.2992,"la2":30.254,"lo1":-89.0895,"lo2":-89.0443,"dy":0.0025,"dx":0.0025,"nx":19,"ny":19,"refTime":"2026-04-24T03:00:00:Z","depth":0,"parameterNumber":2,"parameterNumberName":"U-component_of_WINDS"},"data":[0,0,0,0.6333,0.6334,0.6374,0.6374,0.6432,0.6432,0,0,0,0,0,0,0,0,0,0,0,0.6326,0.6326,0.6333,0.6334,0.6374,0.6374,0.6432,0.6432,0,0,0,0,0,0,0,0,0,0,0,0.6326,0.6326,0.6327,0.6334,0.6374,0.6374,0.6431,0.6399,0,0,0,0,0,0,0,0,0,0,0.6359,0.6357,0.6326,0.6327,0.6335,0.6374,0.6374,0.6397,0.6401,0.6417,0,0.6432,0,0.6433,0.6437,0.6437,0,0,0,0.6331,0.6354,0.636,0.6327,0.6335,0.6374,0.6355,0.6399,0.6404,0.6422,0.6433,0.6435,0.6434,0.6437,0.6437,0.6538,0.6538,0,0,0.6329,0.6335,0.6358,0.6363,0.6358,0.6354,0.6356,0.6402,0.6414,0.6433,0.6436,0.6435,0.6437,0.6438,0.6537,0.6538,0,0,0,0.6325,0.6334,0.6339,0.6361,0.6368,0.6355,0.6358,0.6412,0.6413,0.6436,0.6436,0.6438,0.6439,0.6537,0.6538,0.6575,0,0,0,0.6323,0.6332,0.6339,0.6343,0.6367,0.6391,0.6368,0.641,0.6415,0.6435,0.6438,0.6439,0.6536,0.6537,0.6572,0.6591,0,0,0,0.6322,0.6331,0.6339,0.6343,0.6361,0.639,0.6393,0.6411,0.6415,0.6437,0.6439,0.6535,0.6537,0.657,0.6588,0.662,0,0,0,0.6322,0.6372,0.6339,0.6394,0.636,0.6412,0.6393,0.6431,0.6455,0.6438,0.6536,0.6537,0.6569,0.6585,0.6617,0.6648,0.6662,0,0,0.6388,0.638,0.6411,0.6384,0.6443,0.6406,0.647,0.6485,0.6482,0.6519,0.6522,0.6573,0.6588,0.6619,0.6733,0.6744,0,0,0,0.6434,0.6457,0.6471,0.6494,0.6506,0.6518,0.6523,0.6528,0.6559,0.6502,0.6593,0.6601,0.662,0.6634,0.6643,0.6658,0.6544,0.6544,0.6544,0.6538,0.653,0.6581,0.6578,0.6599,0.6603,0.6619,0.6627,0.6613,0.6634,0.6646,0.6716,0.6733,0.674,0.6756,0.6661,0.6661,0.6661,0.6661,0.6634,0.6665,0.6644,0.6686,0.6677,0.6713,0.6717,0.6706,0.6737,0.6707,0.6723,0.6691,0.6752,0.6765,0.6664,0.6664,0.6663,0.6663,0.6663,0.6702,0.6715,0.672,0.6751,0.6775,0.6769,0.68,0.679,0.6782,0.6797,0.6808,0.6807,0.6806,0.6803,0.6803,0.6803,0.6803,0.6804,0.6804,0.677,0.6775,0.6802,0.6818,0.683,0.6846,0.6848,0.686,0.6871,0.6861,0.6861,0.6845,0.6759,0.6738,0.6808,0.6807,0.6806,0.6806,0.6806,0.6872,0.6847,0.6889,0.6901,0.6919,0.6943,0.693,0.6955,0.6963,0.6979,0.6958,0.6896,0.6887,0.688,0.6862,0.696,0.696,0.696,0.696,0.6929,0.6923,0.6963,0.6984,0.7002,0.6994,0.7041,0.7044,0.7042,0.7046,0.7031,0.7006,0.6999,0.6994,0.6984,0.6968,0.709,0.7091,0.7091,0.6991,0.6986,0.7029,0.7026,0.7039,0.705,0.7094,0.7118,0.7111,0.7096,0.705,0.7044,0.7005,0.6992,0.6977,0.6962,0.6932,0,0]},{"header":{"parameterUnit":"m.s-1","parameterCategory":1,"la1":30.2992,"la2":30.254,"lo1":-89.0895,"lo2":-89.0443,"dy":0.0025,"dx":0.0025,"nx":19,"ny":19,"refTime":"2026-04-24T03:00:00:Z","depth":0,"parameterNumber":3,"parameterNumberName":"V-component_of_WINDS"},"data":[0,0,0,0.5637,0.5639,0.5749,0.5749,0.5887,0.5888,0,0,0,0,0,0,0,0,0,0,0,0.5604,0.5605,0.5637,0.5639,0.5749,0.5749,0.5887,0.5888,0,0,0,0,0,0,0,0,0,0,0,0.5603,0.5604,0.5605,0.564,0.5748,0.5749,0.5887,0.5805,0,0,0,0,0,0,0,0,0,0,0.5699,0.5668,0.5604,0.5605,0.564,0.5748,0.5749,0.5801,0.581,0.5837,0,0.5861,0,0.5877,0.5898,0.5898,0,0,0,0.564,0.566,0.569,0.5606,0.5641,0.5748,0.5699,0.5806,0.5816,0.5849,0.5863,0.5868,0.5879,0.5898,0.5899,0.6053,0.6054,0,0,0.5634,0.5623,0.5683,0.5697,0.568,0.5696,0.5703,0.5812,0.5827,0.5864,0.5872,0.5881,0.5899,0.59,0.6053,0.6053,0,0,0,0.5616,0.5619,0.5646,0.5691,0.5711,0.5699,0.5707,0.5822,0.5832,0.5873,0.5883,0.59,0.5902,0.6052,0.6053,0.6077,0,0,0,0.5612,0.5608,0.5644,0.5638,0.5709,0.5768,0.5714,0.5824,0.5837,0.5882,0.59,0.5903,0.6051,0.6052,0.6075,0.6091,0,0,0,0.5597,0.5607,0.5622,0.5637,0.5684,0.5766,0.5782,0.5827,0.5843,0.5898,0.5904,0.6051,0.6052,0.6073,0.6088,0.6129,0,0,0,0.5577,0.5643,0.5622,0.5699,0.5683,0.578,0.5782,0.5855,0.5905,0.5901,0.6051,0.6053,0.6072,0.6086,0.6127,0.6163,0.6176,0,0,0.5654,0.5651,0.5697,0.5682,0.5781,0.5764,0.5866,0.5922,0.5937,0.6013,0.6017,0.6076,0.6088,0.6128,0.6254,0.6264,0,0,0,0.5718,0.5751,0.5779,0.5826,0.587,0.5909,0.595,0.5971,0.6036,0.5974,0.6101,0.6109,0.6133,0.6151,0.616,0.6182,0.606,0.606,0.606,0.5813,0.5828,0.5905,0.5932,0.5977,0.6019,0.6057,0.6091,0.6094,0.6123,0.6147,0.6221,0.6241,0.6248,0.6271,0.6165,0.6165,0.6166,0.6166,0.5928,0.5977,0.5977,0.6052,0.6066,0.6129,0.617,0.617,0.623,0.6204,0.6227,0.6199,0.6259,0.628,0.6168,0.6167,0.6167,0.6167,0.6167,0.5993,0.6019,0.6042,0.611,0.6161,0.6186,0.6244,0.6255,0.6266,0.6288,0.6314,0.6314,0.6316,0.6299,0.6299,0.63,0.63,0.63,0.63,0.6052,0.6077,0.6125,0.6175,0.6206,0.6248,0.6288,0.6319,0.6355,0.6359,0.6359,0.6359,0.6262,0.6238,0.6304,0.6304,0.6303,0.6303,0.6302,0.6166,0.6142,0.6215,0.6246,0.6305,0.6355,0.6367,0.6428,0.6455,0.6483,0.6477,0.6402,0.6401,0.6394,0.6375,0.6473,0.6473,0.6473,0.6473,0.6222,0.6222,0.6299,0.6347,0.6396,0.6414,0.6496,0.6527,0.6555,0.6572,0.6559,0.6533,0.6526,0.6529,0.6519,0.6501,0.6629,0.6629,0.663,0.6294,0.6298,0.6367,0.6393,0.644,0.648,0.6557,0.6612,0.6639,0.6636,0.6586,0.658,0.6538,0.6524,0.6523,0.6507,0.6474,0,0]}]]